Wind_Speed
10 5 2 3 2 3 6 7 1 3 5 10 6 6 2 2 6 9 15 20 25 28 32 35 35 35 32 29 28 28 28 30 30 30 29 28 26 23 22 22 24 29 35 41 40 39 37 33 31
6 2 4 5 4 7 6 5 9 10 5 7 3 5 4 9 11 15 18 21 26 30 34 33 33 32 32 32 30 30 29 30 32 31 30 28 26 25 23 24 26 28 32 38 41 41 40 36 32
4 3 5 5 5 12 8 9 8 7 4 4 6 3 8 11 14 15 17 22 27 31 32 32 33 31 31 31 30 29 29 30 32 31 31 29 28 26 24 24 28 29 30 35 40 42 42 40 35
5 7 6 4 9 11 9 6 4 2 1 7 5 6 11 16 16 17 21 26 29 33 33 32 34 35 34 34 32 31 31 31 30 31 28 28 29 29 26 26 27 30 31 32 39 40 43 43 38
5 8 9 8 12 10 5 2 3 2 3 3 7 10 13 19 18 21 25 30 30 33 32 34 35 36 36 37 38 36 32 30 28 30 31 30 29 30 27 28 24 29 31 31 34 38 41 43 40
5 11 13 19 13 13 6 1 2 4 5 10 10 11 15 19 19 22 26 30 33 32 31 34 35 35 37 38 38 39 37 32 23 23 26 28 25 25 26 27 26 27 32 30 31 34 36 41 41
4 14 20 23 14 14 6 4 3 8 7 9 11 15 19 20 21 25 29 29 31 31 31 32 33 34 37 37 40 39 33 29 28 26 30 25 29 26 24 25 25 28 30 30 30 30 32 37 41
3 13 20 12 17 10 5 4 4 11 10 13 14 15 18 21 22 25 27 28 28 30 32 34 33 34 37 35 31 28 25 23 27 28 29 31 24 24 22 23 23 28 29 28 27 28 29 33 40
6 13 13 2 2 4 4 2 4 8 11 14 16 18 18 19 26 27 26 27 26 29 32 32 34 31 29 28 30 26 28 28 27 24 25 23 25 21 22 20 24 26 26 27 27 28 28 30 38
8 13 9 9 8 4 5 6 8 6 11 15 19 21 23 26 32 28 26 26 27 29 30 32 30 30 30 28 25 26 30 21 24 22 19 16 13 18 18 20 22 24 25 25 27 27 27 30 38
11 18 13 10 9 10 4 8 9 10 13 17 18 19 22 28 26 24 26 26 29 30 29 30 29 29 25 24 22 26 18 16 13 4 2 7 13 17 19 21 22 23 22 23 25 26 28 30 39
26 23 19 13 11 10 12 13 13 15 13 15 20 24 25 20 21 24 25 26 27 27 29 26 26 26 26 19 21 20 10 6 8 7 9 13 17 23 21 20 21 22 23 23 22 23 27 30 39
11 12 11 11 12 15 18 14 15 18 19 16 18 23 18 17 22 24 24 26 26 26 27 24 23 25 22 21 20 13 6 6 8 12 16 17 18 20 18 19 19 22 22 23 22 25 30 31 39
15 11 13 15 16 25 10 15 17 16 14 17 19 20 15 17 21 24 23 24 24 25 25 23 24 23 20 18 19 15 11 8 8 9 13 13 14 16 18 19 19 21 21 21 23 27 29 35 39
10 12 15 18 20 12 8 10 11 13 13 17 20 21 17 17 20 23 23 22 23 23 22 21 21 22 17 16 15 13 8 6 8 9 8 10 13 15 16 16 18 22 21 22 27 29 30 36 35
11 13 16 21 16 14 13 10 10 13 16 18 20 22 18 17 21 23 22 21 21 22 21 20 21 17 16 14 13 12 10 7 7 9 11 12 14 11 12 13 17 22 19 27 32 33 34 35 27
21 21 25 16 15 19 16 14 10 9 14 18 21 21 19 18 21 22 21 19 19 21 21 18 19 18 16 16 13 11 12 9 9 10 10 9 8 7 9 12 16 19 30 30 33 35 32 32 29
24 22 23 24 17 25 22 16 13 11 14 19 20 21 20 19 20 21 19 16 17 19 20 17 19 18 18 18 14 12 13 12 11 9 8 8 4 10 16 13 17 31 31 32 35 33 30 25 27
25 23 26 26 23 25 21 11 13 13 19 21 21 20 19 20 20 19 17 14 14 17 18 14 18 16 19 19 14 13 12 11 10 11 12 13 13 39 39 38 35 30 35 29 29 28 26 28 27
25 25 30 28 22 28 21 13 16 18 21 23 19 16 18 19 17 15 13 11 11 13 16 13 15 14 17 17 14 13 12 13 13 13 11 13 18 30 34 40 38 36 40 36 25 23 27 26 19
27 27 25 25 16 24 12 17 17 15 18 24 19 13 17 16 13 10 10 8 9 10 14 14 14 13 14 16 15 16 16 20 22 21 21 26 31 34 29 30 40 35 36 30 33 28 27 32 34
28 21 22 26 15 28 18 6 12 14 21 27 20 13 13 12 9 7 7 5 6 7 11 12 13 13 12 16 15 15 18 21 23 15 19 19 24 28 26 24 21 22 26 29 32 27 24 26 24
24 18 22 21 17 21 17 11 13 16 21 28 21 12 7 9 8 5 4 4 4 5 8 9 11 10 10 14 15 16 16 21 23 19 23 21 21 20 19 21 24 23 28 25 26 31 27 23 23
18 21 16 9 14 8 15 17 22 21 25 28 17 8 3 8 7 5 2 2 1 5 7 9 10 12 10 11 14 17 19 16 17 19 21 21 21 21 20 21 22 22 25 24 25 27 30 24 22
29 19 12 5 3 6 27 15 24 24 26 27 21 2 2 7 7 7 2 2 0 4 7 8 10 10 10 8 13 16 14 15 16 17 17 16 16 16 20 19 20 23 19 22 23 22 21 22 21
27 24 16 7 3 13 17 7 23 18 21 26 16 5 7 8 8 8 4 3 2 6 8 9 9 10 8 9 9 14 16 14 11 13 13 12 13 13 15 20 28 22 21 19 15 17 18 20 19
29 30 30 22 22 5 11 19 26 14 15 23 22 9 8 8 10 10 7 4 5 7 8 10 10 10 8 9 7 9 11 13 11 9 9 8 11 11 12 18 21 17 15 12 15 13 13 17 16
35 29 25 20 5 5 8 13 18 18 19 21 24 12 9 10 12 12 10 7 6 6 7 10 10 11 10 9 9 8 9 10 10 9 8 6 7 10 12 14 16 16 15 17 15 13 14 14 12
30 27 17 14 10 3 3 11 21 18 18 22 24 13 10 9 11 12 13 10 8 7 7 9 7 7 8 11 10 8 8 8 8 9 9 9 10 12 11 13 14 15 17 15 14 16 17 12 11
26 33 23 2 7 5 12 18 12 12 16 23 22 17 13 12 10 13 16 13 11 9 8 8 7 5 7 10 12 11 8 8 9 9 10 10 10 10 13 15 14 16 16 14 12 12 12 11 10
Wind_Direction
121 122 54 35 117 66 119 128 291 266 263 284 144 196 263 223 289 301 316 328 327 323 319 319 317 316 313 309 303 298 293 292 292 291 288 286 282 279 269 241 232 222 220 217 212 212 214 211 205
128 184 310 310 148 165 145 186 244 298 327 157 187 315 298 299 313 312 325 326 320 315 317 314 313 312 311 309 305 298 297 294 292 288 284 281 278 272 262 247 231 225 222 217 214 211 212 213 209
125 336 332 336 285 224 192 217 280 314 34 163 186 231 253 291 303 306 309 307 313 317 312 310 314 313 309 307 303 298 293 288 288 284 279 274 271 267 260 247 234 228 225 219 213 211 211 212 211
310 321 339 306 244 213 249 221 264 243 1 120 184 225 264 293 300 298 306 314 316 314 314 315 314 315 315 312 307 302 294 288 284 282 276 266 268 260 255 243 234 227 228 222 215 210 210 211 209
298 322 295 265 250 229 249 187 324 306 292 248 256 250 276 291 301 308 311 313 312 313 317 318 318 318 315 310 306 303 297 296 281 274 275 269 272 254 249 239 235 225 228 223 217 211 210 211 207
303 318 303 304 238 222 226 248 315 197 236 242 260 266 286 291 297 305 308 310 314 320 322 318 317 315 308 310 312 310 303 300 287 269 263 273 277 251 242 241 233 226 224 221 214 213 209 211 206
332 302 309 314 222 194 215 255 206 218 244 236 245 270 290 291 298 302 306 315 319 321 318 316 312 310 310 312 309 310 301 288 286 272 267 272 256 254 233 239 236 222 218 219 210 210 208 210 207
301 296 298 1 179 208 210 291 221 235 261 254 260 278 290 288 293 302 313 316 321 319 316 314 317 313 311 307 312 315 304 296 290 274 272 270 262 252 230 231 222 209 211 214 205 205 206 204 205
255 286 300 54 304 210 224 244 269 258 280 266 271 281 287 298 315 315 314 319 319 319 318 320 317 320 321 314 311 311 310 302 300 285 278 262 257 226 212 216 202 198 205 205 200 202 201 200 202
270 278 258 272 294 315 305 282 261 273 249 269 288 301 306 311 312 314 317 321 323 324 322 323 326 326 319 318 310 311 314 304 302 290 265 252 219 202 202 194 190 191 197 194 196 199 194 196 197
278 283 241 248 272 287 262 248 273 264 260 280 291 294 297 305 314 321 322 326 329 329 327 330 332 331 332 326 322 319 323 325 336 337 190 180 190 180 173 178 178 183 189 188 190 193 190 191 194
286 264 237 252 269 273 268 264 259 256 281 282 287 294 299 308 329 327 328 331 332 330 334 337 340 346 347 337 336 339 347 17 42 83 122 145 152 157 159 167 169 176 181 181 188 185 185 190 189
226 210 243 270 281 285 287 260 267 278 293 291 287 304 310 327 336 333 332 333 334 336 342 343 348 350 352 358 356 7 37 70 79 103 120 127 141 152 153 163 167 174 174 179 180 179 182 182 185
253 257 263 271 286 303 268 250 260 277 303 277 293 309 334 332 331 335 332 333 338 347 344 350 349 350 358 9 19 44 69 85 105 109 117 120 140 155 163 165 166 170 172 175 174 177 177 177 182
267 261 275 280 290 277 254 264 290 282 290 280 298 325 334 332 332 333 332 335 346 351 349 351 353 356 10 20 31 40 53 74 81 89 113 134 140 148 159 162 170 175 172 169 169 165 165 174 178
248 258 266 280 275 263 258 285 268 275 274 277 303 328 332 324 334 333 331 339 350 350 352 351 351 6 15 26 30 42 52 59 70 97 108 131 143 148 164 171 180 182 166 157 157 160 159 164 161
251 260 265 266 253 258 253 262 287 269 267 272 300 320 329 327 332 331 329 341 354 354 357 356 354 18 28 34 33 50 64 69 82 96 107 122 131 152 168 176 182 209 149 154 157 156 153 155 175
258 259 264 259 257 244 247 261 272 288 273 279 298 313 326 318 330 328 324 342 359 356 1 4 8 16 35 39 41 50 65 72 80 96 108 111 153 175 129 184 167 136 139 146 151 154 149 157 157
255 257 272 271 288 247 238 261 261 288 270 270 292 305 325 306 326 323 317 345 1 359 5 11 20 20 31 41 45 51 67 75 80 85 115 121 132 107 90 105 131 137 131 142 150 152 153 155 167
248 261 268 269 295 230 236 259 252 263 276 274 285 308 316 303 317 313 313 347 360 3 14 16 23 30 34 44 50 61 68 79 87 93 115 126 123 124 109 97 104 110 114 102 122 169 173 175 166
249 254 258 269 264 211 234 248 257 260 263 253 263 287 305 303 302 306 310 349 357 2 23 28 41 38 40 55 58 74 83 93 93 95 105 104 127 133 130 116 114 110 111 113 100 110 134 159 158
249 243 259 267 253 212 228 256 269 279 277 238 245 284 287 297 292 294 309 354 0 358 28 31 48 49 46 56 62 79 96 107 103 97 101 106 126 132 126 119 121 134 120 122 119 110 113 126 154
249 249 261 267 247 212 235 263 273 272 262 226 233 258 267 296 283 277 303 3 6 18 27 41 48 52 49 67 72 91 107 111 106 90 99 85 81 107 126 127 126 127 131 131 127 124 116 122 132
247 248 242 252 218 239 248 261 274 267 250 232 219 232 242 282 280 255 286 28 346 38 45 38 46 53 53 81 86 103 114 98 99 85 88 88 91 92 114 126 127 130 128 126 125 128 131 135 133
236 233 232 262 277 236 271 284 275 269 246 240 236 217 251 266 276 235 207 92 16 74 71 58 57 53 64 92 101 112 118 112 110 98 99 89 84 90 109 122 126 125 127 124 122 124 127 134 134
208 223 214 208 205 264 273 285 292 274 243 235 225 259 280 249 271 227 185 146 104 97 98 78 67 69 58 77 117 118 119 122 118 109 100 89 78 87 102 126 123 121 122 125 130 123 123 128 124
211 226 242 239 240 243 276 289 275 216 199 209 216 237 275 257 255 232 188 179 112 98 112 91 74 78 82 81 93 122 125 128 128 117 107 94 94 91 97 112 122 124 122 122 123 119 134 120 130
222 235 227 226 193 247 262 265 235 209 229 215 208 230 259 257 236 232 195 174 140 118 124 106 92 89 91 98 96 105 127 140 142 142 137 124 111 110 124 131 131 126 117 121 118 125 133 141 127
217 216 214 222 204 190 247 260 255 234 252 222 218 232 260 277 230 228 200 170 166 151 134 118 111 100 91 101 106 110 109 125 146 149 142 131 123 117 112 130 134 128 123 118 118 114 130 141 142
225 211 212 172 231 274 259 261 261 252 241 228 241 225 257 263 244 222 205 178 173 169 148 139 124 109 105 101 113 112 117 125 124 130 132 135 133 124 114 121 124 124 123 117 115 111 112 115 118
Height
3181 3182 3183 3183 3188 3185 3182 3183 3181 3180 3179 3176 3175 3175 3175 3174 3174 3175 3170 3165 3161 3160 3158 3154 3151 3147 3143 3140 3138 3136 3132 3129 3127 3126 3124 3123 3122 3123 3123 3123 3125 3129 3131 3135 3139 3144 3149 3153 3157
3182 3183 3184 3183 3184 3182 3182 3181 3180 3177 3174 3174 3173 3174 3173 3172 3171 3169 3166 3164 3159 3156 3154 3151 3148 3142 3138 3135 3132 3129 3126 3123 3120 3119 3118 3117 3117 3117 3118 3119 3120 3123 3126 3129 3134 3139 3144 3150 3154
3182 3184 3185 3183 3181 3180 3178 3176 3177 3175 3174 3173 3174 3174 3172 3171 3168 3167 3165 3163 3160 3155 3151 3147 3141 3137 3133 3130 3127 3124 3121 3118 3114 3112 3111 3110 3110 3111 3112 3112 3115 3117 3121 3124 3128 3133 3140 3145 3151
3182 3183 3184 3183 3180 3178 3177 3174 3172 3173 3173 3173 3172 3172 3170 3169 3167 3165 3162 3159 3155 3151 3146 3141 3136 3132 3127 3122 3119 3116 3113 3111 3108 3104 3102 3103 3103 3104 3106 3107 3109 3113 3115 3119 3123 3127 3135 3141 3147
3182 3182 3181 3180 3178 3175 3176 3174 3171 3170 3171 3172 3171 3170 3168 3167 3163 3161 3158 3155 3152 3147 3142 3135 3130 3124 3119 3115 3111 3108 3105 3102 3099 3097 3095 3094 3096 3096 3098 3100 3103 3107 3110 3113 3118 3123 3130 3137 3143
3180 3179 3178 3177 3176 3175 3175 3174 3171 3170 3170 3168 3168 3167 3165 3163 3160 3159 3155 3152 3147 3141 3137 3131 3125 3119 3113 3108 3103 3099 3095 3092 3090 3089 3088 3087 3087 3088 3090 3093 3097 3100 3104 3108 3113 3118 3125 3132 3139
3177 3177 3175 3176 3172 3173 3174 3174 3171 3170 3169 3168 3166 3165 3163 3161 3158 3156 3154 3149 3143 3138 3132 3127 3122 3115 3108 3101 3095 3090 3087 3085 3083 3081 3081 3080 3081 3081 3083 3087 3090 3094 3099 3104 3109 3115 3120 3128 3136
3176 3176 3173 3174 3172 3173 3173 3172 3170 3169 3168 3167 3166 3164 3161 3160 3157 3155 3151 3146 3140 3134 3129 3123 3117 3110 3103 3098 3092 3085 3081 3077 3074 3073 3072 3071 3072 3074 3077 3081 3085 3089 3095 3101 3107 3111 3117 3124 3132
3176 3174 3172 3172 3172 3172 3171 3170 3169 3168 3166 3165 3163 3162 3160 3158 3156 3153 3148 3143 3137 3131 3124 3118 3111 3105 3098 3092 3087 3081 3076 3071 3067 3064 3063 3062 3064 3067 3072 3076 3080 3085 3092 3098 3103 3107 3113 3120 3127
3174 3172 3171 3170 3170 3169 3168 3168 3168 3167 3164 3162 3161 3159 3157 3156 3155 3149 3144 3138 3133 3127 3121 3114 3106 3100 3094 3088 3082 3077 3071 3066 3062 3057 3055 3056 3059 3064 3069 3073 3078 3083 3088 3094 3100 3105 3111 3117 3122
3171 3170 3170 3167 3167 3168 3167 3167 3166 3165 3161 3160 3159 3157 3156 3155 3152 3146 3140 3134 3128 3122 3116 3110 3103 3096 3090 3084 3078 3072 3067 3064 3059 3053 3053 3054 3058 3062 3068 3072 3076 3081 3086 3091 3097 3102 3108 3113 3119
3166 3165 3166 3165 3166 3166 3165 3164 3163 3162 3163 3162 3160 3158 3156 3153 3149 3143 3138 3132 3126 3120 3113 3107 3101 3095 3088 3082 3076 3070 3067 3065 3061 3057 3056 3057 3060 3063 3068 3073 3076 3080 3085 3090 3096 3102 3107 3111 3119
3163 3163 3163 3163 3163 3164 3163 3162 3161 3160 3160 3160 3158 3156 3154 3150 3145 3140 3135 3130 3124 3117 3111 3105 3099 3095 3089 3082 3076 3071 3068 3066 3064 3062 3061 3062 3064 3067 3070 3073 3076 3080 3085 3089 3094 3099 3104 3110 3118
3162 3161 3161 3161 3161 3160 3160 3160 3159 3158 3157 3157 3155 3153 3151 3148 3144 3139 3134 3128 3122 3116 3110 3105 3100 3095 3088 3083 3078 3073 3071 3069 3067 3067 3066 3067 3068 3070 3072 3074 3077 3080 3084 3088 3093 3097 3102 3109 3117
3160 3159 3158 3157 3158 3157 3158 3157 3155 3156 3155 3153 3152 3149 3149 3147 3142 3137 3133 3127 3121 3115 3110 3105 3100 3096 3089 3085 3081 3077 3075 3073 3071 3070 3070 3070 3072 3072 3073 3076 3078 3080 3083 3088 3092 3097 3103 3110 3118
3158 3157 3155 3154 3154 3154 3156 3155 3154 3153 3152 3150 3149 3149 3148 3145 3141 3136 3132 3126 3120 3115 3110 3106 3101 3096 3091 3087 3083 3080 3077 3076 3074 3073 3072 3073 3073 3074 3075 3076 3078 3080 3082 3089 3094 3099 3104 3113 3119
3154 3153 3152 3152 3151 3151 3151 3151 3151 3149 3150 3148 3147 3147 3146 3144 3140 3136 3131 3126 3120 3116 3111 3107 3103 3097 3092 3088 3085 3082 3080 3079 3077 3077 3077 3077 3076 3075 3075 3076 3076 3077 3085 3091 3096 3102 3108 3114 3120
3152 3152 3150 3150 3150 3148 3149 3147 3147 3147 3147 3146 3144 3144 3144 3143 3139 3135 3131 3126 3121 3117 3112 3109 3105 3099 3095 3090 3088 3085 3082 3082 3080 3080 3079 3079 3077 3073 3077 3070 3077 3081 3088 3094 3100 3106 3110 3117 3121
3150 3149 3147 3147 3148 3146 3146 3146 3146 3146 3146 3144 3142 3142 3143 3141 3138 3134 3131 3126 3122 3119 3114 3111 3107 3102 3097 3093 3091 3088 3085 3084 3083 3081 3081 3081 3079 3080 3079 3077 3078 3082 3093 3098 3104 3108 3112 3117 3122
3146 3146 3143 3143 3141 3143 3143 3143 3143 3143 3143 3141 3141 3141 3141 3139 3137 3134 3131 3126 3123 3120 3117 3113 3110 3105 3100 3097 3094 3091 3088 3087 3086 3084 3083 3083 3087 3087 3086 3089 3090 3095 3100 3104 3106 3108 3111 3117 3121
3142 3142 3140 3143 3142 3143 3143 3141 3142 3141 3141 3140 3139 3140 3140 3138 3135 3133 3131 3126 3124 3121 3119 3116 3113 3109 3105 3101 3098 3095 3093 3091 3090 3091 3088 3088 3089 3092 3095 3098 3100 3104 3107 3110 3111 3112 3113 3117 3122
3138 3139 3139 3141 3141 3141 3141 3138 3138 3138 3136 3136 3137 3139 3138 3137 3134 3132 3130 3127 3124 3123 3121 3118 3115 3112 3109 3105 3103 3101 3099 3097 3097 3097 3098 3097 3098 3099 3101 3103 3105 3107 3113 3115 3117 3118 3122 3126 3127
3136 3138 3138 3138 3137 3138 3137 3135 3133 3136 3133 3133 3135 3137 3136 3135 3133 3132 3130 3127 3125 3124 3122 3121 3118 3116 3113 3110 3108 3106 3105 3104 3104 3105 3105 3102 3102 3093 3104 3109 3112 3113 3116 3119 3121 3124 3129 3132 3136
3134 3136 3136 3135 3136 3134 3134 3133 3129 3130 3129 3130 3134 3135 3134 3134 3132 3131 3129 3127 3126 3125 3123 3122 3120 3118 3117 3115 3113 3112 3112 3111 3111 3110 3110 3110 3110 3111 3113 3113 3115 3117 3121 3125 3127 3131 3136 3138 3140
3130 3132 3133 3136 3136 3132 3130 3129 3124 3125 3125 3127 3130 3132 3132 3132 3131 3131 3129 3128 3127 3126 3125 3125 3123 3121 3120 3119 3119 3117 3117 3116 3117 3117 3118 3117 3117 3117 3118 3119 3120 3124 3126 3129 3133 3137 3139 3142 3145
3125 3128 3129 3135 3136 3128 3127 3126 3122 3121 3120 3125 3130 3130 3131 3131 3131 3131 3129 3128 3128 3127 3127 3126 3125 3124 3122 3121 3122 3121 3120 3121 3121 3121 3121 3122 3122 3122 3122 3121 3125 3129 3132 3134 3136 3139 3143 3146 3148
3121 3122 3125 3126 3127 3127 3125 3125 3123 3120 3120 3123 3127 3128 3129 3129 3130 3130 3129 3129 3128 3128 3128 3128 3127 3127 3125 3124 3123 3123 3123 3123 3124 3125 3125 3126 3127 3127 3127 3129 3132 3133 3136 3138 3141 3143 3145 3147 3151
3112 3119 3119 3120 3125 3127 3122 3122 3121 3120 3118 3121 3124 3126 3126 3127 3128 3129 3129 3129 3128 3129 3129 3129 3129 3129 3128 3127 3127 3126 3126 3127 3128 3128 3129 3130 3131 3131 3132 3134 3136 3139 3140 3142 3144 3147 3149 3151 3154
3109 3110 3112 3116 3117 3122 3124 3119 3117 3115 3116 3119 3121 3125 3125 3126 3126 3127 3129 3128 3128 3129 3130 3130 3131 3131 3131 3129 3129 3129 3129 3130 3130 3131 3132 3133 3135 3136 3136 3137 3140 3142 3144 3146 3148 3151 3153 3156 3158
3102 3102 3105 3110 3114 3118 3120 3115 3115 3115 3113 3115 3120 3123 3123 3125 3125 3126 3128 3128 3128 3129 3131 3131 3132 3132 3132 3132 3132 3132 3132 3132 3133 3135 3136 3137 3138 3139 3140 3142 3144 3146 3148 3150 3152 3154 3156 3158 3160